"SCET";"TARGET";"ELECTRON_DENSITY";"ERROR_FLAG";"ELECTRON_DENSITY_ERROR";"FREQ_FCE";"MEASURED_VALUE";"MEASURED_ITEM";"FREQ_PLASMA";"FREQ_UPPER_HYBRID";"FREQ_R_EQUALS_ZERO";"FREQ_L_EQUALS_ZERO";"ORBIT_NUMBER";"SATURN_RADIUS";"SATURN_IAU_LONGITUDE";"SATURN_SLS4_S_LONGITUDE";"SATURN_SLS4_N_LONGITUDE";"SATURN_SLS5_S_LONGITUDE";"SATURN_SLS5_N_LONGITUDE";"SATURN_LOCAL_TIME";"SATURN_KRONOGRAPHIC_LATITUDE";"SATURN_MAGNETIC_LATITUDE";"SATURN_L";"SATURN_L_OFFSET";"SATURN_SOLAR_EQUATORIAL_X";"SATURN_SOLAR_EQUATORIAL_Y";"SATURN_SOLAR_EQUATORIAL_Z";"SATURN_ALTITUDE";"ENCELADUS_ENCOUNTER_NUMBER";"ENCELADUS_RADIUS";"ENCELADUS_COROTATIONAL_X";"ENCELADUS_COROTATIONAL_Y";"ENCELADUS_COROTATIONAL_Z";"ENCELADUS_TRUE_ANOMALY";"ENCELADUS_PERIAPSIS_TIME";"JUPITER_RADIUS";"JUPITER_SYSTEMIII_LONGITUDE";"JUPITER_MAGNETIC_LATITUDE";"JUPITER_MAGNETIC_LOCAL_TIME";"JUPITER_L";"IO_PHASE";"EARTH_RADIUS";"EARTH_MAGNETIC_LATITUDE";"EARTH_LOCAL_TIME";"EARTH_L"
"[UTC]";"[0=Saturn, 1=Enceladus, 2=Jupiter, 3=Earth]";"[cm-3]";"[0=automated, 1=manual]";"[normalized density error]";"[Hz]";"[Hz]";"[0=upper hybrid frequency, 1=plasma frequency cutoff]";"[Hz]";"[Hz]";"[Hz]";"[Hz}";"[0, A, B, C, 3, 4, ... , 292, 293]";"[Rs where 1Rs=60268km]";"[degrees]";"[degrees]";"[degrees]";"[degrees]";"[degrees]";"[hours]";"[degrees]";"[degrees where offset=2293km north]";"[Rs where 1Rs=60268km]";"[Rs where 1Rs=60268km and offset=2293km north]";"[Rs where 1Rs=60268km]";"[Rs where 1Rs=60268km]";"[Rs where 1Rs=60268km]";"[km where ellipsoid a,b=60268km and c=54364km]";"[E0, E1, E2, ... , E21, E22]";"[Renc where 1Renc=252.1km]";"[Renc where 1Renc=252.1km]";"[Renc where 1Renc=252.1km]";"[Renc where 1Renc=252.1km]";"[degrees]";"[UTC]";"[Rj where 1Rj=71492km]";"[degrees]";"[degrees using JRM09 model]";"[hours using JRM09 model]";"[Rj where 1Rj=71492km]";"[degrees]";"[Re where 1Re=6378.1366km]";"[degrees]";"[hours]";"[Re where 1Re=6378.1366km]"
2015-12-20T00:00:37.946Z;0;1.2860e+01;0;     0.198;  1421.952;  32230.982; 0;  32199.602;  32230.982;  32918.426;  31496.473;228;   7.460; 189.263;;; 200.807;  40.904;  23.884;  -1.115;  -1.408;   7.463;   7.453;  -7.455;   0.226;  -0.145;;;;;;;;;;;;;;;;;;
2015-12-20T00:00:53.946Z;0;1.4350e+01;0;     0.185;  1421.952;  34048.582; 0;  34018.879;  34048.582;  34737.281;  33315.328;228;   7.462; 189.398;;; 200.942;  41.037;  23.885;  -1.115;  -1.407;   7.465;   7.455;  -7.457;   0.224;  -0.145;;;;;;;;;;;;;;;;;;
2015-12-20T00:01:09.946Z;0;1.4230e+01;0;     0.187;  1421.952;  33902.859; 0;  33873.027;  33902.859;  34591.465;  33169.512;228;   7.465; 189.533;;; 201.076;  41.169;  23.886;  -1.115;  -1.407;   7.467;   7.458;  -7.460;   0.222;  -0.145;;;;;;;;;;;;;;;;;;
2015-12-20T00:01:25.946Z;0;1.5490e+01;0;     0.173;  1421.952;  35374.426; 0;  35345.836;  35374.426;  36063.961;  34642.008;228;   7.467; 189.668;;; 201.210;  41.302;  23.887;  -1.115;  -1.407;   7.470;   7.460;  -7.462;   0.220;  -0.145;;;;;;;;;;;;;;;;;;
2015-12-20T00:01:57.946Z;0;1.4390e+01;0;     0.162;  1415.148;  34098.820; 0;  34069.441;  34098.820;  34784.363;  33369.215;228;   7.472; 189.939;;; 201.479;  41.567;  23.889;  -1.115;  -1.406;   7.474;   7.465;  -7.467;   0.216;  -0.145;;;;;;;;;;;;;;;;;;
2015-12-20T00:02:13.946Z;0;1.4420e+01;0;     0.159;  1415.148;  34131.641; 0;  34102.289;  34131.641;  34817.203;  33402.059;228;   7.474; 190.074;;; 201.614;  41.700;  23.890;  -1.114;  -1.406;   7.477;   7.467;  -7.470;   0.215;  -0.145;;;;;;;;;;;;;;;;;;
2015-12-20T00:02:29.945Z;0;1.1650e+01;0;     0.186;  1415.148;  30684.449; 0;  30651.799;  30684.449;  31367.539;  29952.391;228;   7.476; 190.209;;; 201.748;  41.832;  23.891;  -1.114;  -1.406;   7.479;   7.469;  -7.472;   0.213;  -0.145;;;;;;;;;;;;;;;;;;
2015-12-20T00:02:45.945Z;0;1.1800e+01;0;     0.187;  1415.148;  30884.162; 0;  30851.723;  30884.162;  31567.410;  30152.262;228;   7.479; 190.344;;; 201.882;  41.965;  23.892;  -1.114;  -1.405;   7.482;   7.472;  -7.474;   0.211;  -0.145;;;;;;;;;;;;;;;;;;
2015-12-20T00:03:01.945Z;0;1.2970e+01;0;     0.194;  1415.148;  32370.771; 0;  32339.824;  32370.771;  33055.137;  31639.990;228;   7.481; 190.480;;; 202.017;  42.097;  23.893;  -1.114;  -1.405;   7.484;   7.474;  -7.477;   0.209;  -0.145;;;;;;;;;;;;;;;;;;
2015-12-20T00:03:33.945Z;0;1.2910e+01;0;     0.180;  1408.372;  32295.244; 0;  32264.520;  32295.244;  32976.391;  31568.018;228;   7.486; 190.750;;; 202.286;  42.362;  23.895;  -1.114;  -1.405;   7.489;   7.479;  -7.482;   0.205;  -0.145;;;;;;;;;;;;;;;;;;
2015-12-20T00:03:49.945Z;0;1.0880e+01;0;     0.206;  1408.372;  29648.084; 0;  29614.613;  29648.084;  30327.172;  28918.799;228;   7.488; 190.885;;; 202.420;  42.494;  23.896;  -1.113;  -1.404;   7.491;   7.481;  -7.484;   0.203;  -0.146;;;;;;;;;;;;;;;;;;
2015-12-20T00:04:05.945Z;0;1.1620e+01;0;     0.199;  1408.372;  30645.672; 0;  30613.293;  30645.672;  31325.576;  29917.205;228;   7.490; 191.021;;; 202.555;  42.626;  23.897;  -1.113;  -1.404;   7.493;   7.484;  -7.486;   0.201;  -0.146;;;;;;;;;;;;;;;;;;
2015-12-20T00:04:21.945Z;0;1.5250e+01;0;     0.139;  1408.372;  35090.836; 0;  35062.562;  35090.836;  35773.820;  34365.445;228;   7.493; 191.156;;; 202.689;  42.758;  23.898;  -1.113;  -1.404;   7.496;   7.486;  -7.489;   0.200;  -0.146;;;;;;;;;;;;;;;;;;
2015-12-20T00:04:37.945Z;0;9.9480e+00;0;     0.188;  1401.652;  28358.404; 0;  28323.744;  28358.404;  29033.238;  27631.588;228;   7.495; 191.291;;; 202.824;  42.890;  23.899;  -1.113;  -1.404;   7.498;   7.488;  -7.491;   0.198;  -0.146;;;;;;;;;;;;;;;;;;
2015-12-20T00:05:25.944Z;0;1.4040e+01;0;     0.180;  1401.652;  33683.113; 0;  33653.938;  33683.113;  34362.059;  32960.406;228;   7.502; 191.697;;; 203.227;  43.285;  23.902;  -1.112;  -1.403;   7.505;   7.495;  -7.498;   0.192;  -0.146;;;;;;;;;;;;;;;;;;
2015-12-20T00:05:41.944Z;0;1.9960e+01;0;     0.145;  1401.652;  40140.230; 0;  40115.750;  40140.230;  40822.699;  39421.047;228;   7.505; 191.833;;; 203.362;  43.417;  23.903;  -1.112;  -1.403;   7.507;   7.498;  -7.501;   0.190;  -0.146;;;;;;;;;;;;;;;;;;
2015-12-20T00:06:13.944Z;0;1.5680e+01;0;     0.153;  1394.988;  35586.535; 0;  35559.184;  35586.535;  36263.516;  34868.527;228;   7.509; 192.103;;; 203.631;  43.680;  23.905;  -1.112;  -1.402;   7.512;   7.502;  -7.506;   0.186;  -0.146;;;;;;;;;;;;;;;;;;
2015-12-20T00:06:29.944Z;0;1.4520e+01;0;     0.165;  1394.988;  34251.488; 0;  34223.070;  34251.488;  34927.672;  33532.684;228;   7.512; 192.239;;; 203.765;  43.812;  23.906;  -1.112;  -1.402;   7.515;   7.505;  -7.508;   0.185;  -0.146;;;;;;;;;;;;;;;;;;
2015-12-20T00:06:45.944Z;0;1.4570e+01;0;     0.160;  1394.988;  34304.094; 0;  34275.719;  34304.094;  34980.309;  33585.320;228;   7.514; 192.374;;; 203.900;  43.943;  23.907;  -1.112;  -1.402;   7.517;   7.507;  -7.510;   0.183;  -0.146;;;;;;;;;;;;;;;;;;
2015-12-20T00:07:01.944Z;0;1.4760e+01;0;     0.148;  1394.988;  34523.113; 0;  34494.918;  34523.113;  35199.461;  33804.477;228;   7.516; 192.509;;; 204.035;  44.075;  23.908;  -1.111;  -1.401;   7.519;   7.509;  -7.513;   0.181;  -0.146;;;;;;;;;;;;;;;;;;
2015-12-20T00:07:17.944Z;0;1.4530e+01;0;     0.172;  1394.988;  34258.129; 0;  34229.715;  34258.129;  34934.316;  33539.328;228;   7.519; 192.645;;; 204.169;  44.206;  23.909;  -1.111;  -1.401;   7.522;   7.512;  -7.515;   0.179;  -0.146;;;;;;;;;;;;;;;;;;
2015-12-20T00:07:33.944Z;0;1.4300e+01;0;     0.151;  1388.380;  33981.754; 0;  33953.379;  33981.754;  34654.664;  33266.285;228;   7.521; 192.780;;; 204.304;  44.337;  23.910;  -1.111;  -1.401;   7.524;   7.514;  -7.518;   0.177;  -0.146;;;;;;;;;;;;;;;;;;
2015-12-20T00:07:49.943Z;0;1.3280e+01;0;     0.174;  1388.380;  32753.990; 0;  32724.551;  32753.990;  33426.105;  32037.725;228;   7.523; 192.916;;; 204.438;  44.469;  23.911;  -1.111;  -1.401;   7.526;   7.517;  -7.520;   0.175;  -0.146;;;;;;;;;;;;;;;;;;
2015-12-20T00:08:05.943Z;0;1.3960e+01;0;     0.167;  1388.380;  33576.066; 0;  33547.348;  33576.066;  34248.723;  32860.340;228;   7.526; 193.051;;; 204.573;  44.600;  23.912;  -1.111;  -1.400;   7.529;   7.519;  -7.522;   0.173;  -0.146;;;;;;;;;;;;;;;;;;
2015-12-20T00:08:21.943Z;0;1.4470e+01;0;     0.151;  1388.380;  34189.605; 0;  34161.402;  34189.605;  34862.648;  33474.266;228;   7.528; 193.186;;; 204.708;  44.731;  23.913;  -1.111;  -1.400;   7.531;   7.521;  -7.525;   0.171;  -0.146;;;;;;;;;;;;;;;;;;
2015-12-20T00:08:37.943Z;0;1.4640e+01;0;     0.162;  1388.380;  34389.668; 0;  34361.629;  34389.668;  35062.832;  33674.453;228;   7.530; 193.322;;; 204.842;  44.862;  23.914;  -1.111;  -1.400;   7.533;   7.524;  -7.527;   0.169;  -0.146;;;;;;;;;;;;;;;;;;
2015-12-20T00:08:53.943Z;0;1.4130e+01;0;     0.159;  1381.800;  33778.840; 0;  33750.566;  33778.840;  34448.535;  33066.734;228;   7.533; 193.457;;; 204.977;  44.993;  23.915;  -1.110;  -1.400;   7.536;   7.526;  -7.530;   0.168;  -0.146;;;;;;;;;;;;;;;;;;
2015-12-20T00:09:09.943Z;0;1.4440e+01;0;     0.156;  1381.800;  34147.312; 0;  34119.344;  34147.312;  34817.238;  33435.438;228;   7.535; 193.593;;; 205.112;  45.124;  23.916;  -1.110;  -1.399;   7.538;   7.528;  -7.532;   0.166;  -0.146;;;;;;;;;;;;;;;;;;
2015-12-20T00:09:25.943Z;0;1.4450e+01;0;     0.167;  1381.800;  34158.441; 0;  34130.480;  34158.441;  34828.375;  33446.574;228;   7.538; 193.728;;; 205.246;  45.255;  23.917;  -1.110;  -1.399;   7.540;   7.531;  -7.534;   0.164;  -0.146;;;;;;;;;;;;;;;;;;
2015-12-20T00:09:41.943Z;0;1.3310e+01;0;     0.166;  1381.800;  32794.227; 0;  32765.102;  32794.227;  33463.285;  32081.486;228;   7.540; 193.864;;; 205.381;  45.385;  23.918;  -1.110;  -1.399;   7.543;   7.533;  -7.537;   0.162;  -0.146;;;;;;;;;;;;;;;;;;
2015-12-20T00:11:01.942Z;0;1.4840e+01;0;     0.170;  1375.276;  34618.656; 0;  34591.328;  34618.656;  35285.801;  33910.523;228;   7.552; 194.541;;; 206.060;  46.050;  23.923;  -1.109;  -1.398;   7.554;   7.545;  -7.549;   0.153;  -0.146;;;;;;;;;;;;;;;;;;
2015-12-20T00:11:17.942Z;0;1.4490e+01;0;     0.149;  1375.276;  34211.738; 0;  34184.086;  34211.738;  34878.637;  33503.363;228;   7.554; 194.677;;; 206.197;  46.184;  23.924;  -1.109;  -1.397;   7.557;   7.547;  -7.551;   0.151;  -0.146;;;;;;;;;;;;;;;;;;
2015-12-20T00:11:33.942Z;0;1.3380e+01;0;     0.166;  1368.780;  32871.918; 0;  32843.406;  32871.918;  33534.926;  32166.148;228;   7.556; 194.812;;; 206.333;  46.317;  23.925;  -1.109;  -1.397;   7.559;   7.549;  -7.553;   0.149;  -0.146;;;;;;;;;;;;;;;;;;
2015-12-20T00:11:49.942Z;0;1.5370e+01;0;     0.173;  1368.780;  35229.785; 0;  35203.184;  35229.785;  35894.227;  34525.445;228;   7.559; 194.948;;; 206.470;  46.451;  23.926;  -1.109;  -1.397;   7.562;   7.552;  -7.556;   0.147;  -0.146;;;;;;;;;;;;;;;;;;
2015-12-20T00:12:05.942Z;0;1.4450e+01;0;     0.181;  1368.780;  34168.957; 0;  34141.531;  34168.957;  34832.777;  33464.000;228;   7.561; 195.083;;; 206.606;  46.585;  23.927;  -1.108;  -1.397;   7.564;   7.554;  -7.558;   0.145;  -0.146;;;;;;;;;;;;;;;;;;
2015-12-20T00:12:21.942Z;0;1.1990e+01;0;     0.169;  1368.780;  31122.545; 0;  31092.430;  31122.545;  31784.352;  30415.572;228;   7.563; 195.219;;; 206.743;  46.719;  23.928;  -1.108;  -1.396;   7.566;   7.556;  -7.561;   0.143;  -0.146;;;;;;;;;;;;;;;;;;
2015-12-20T00:12:37.942Z;0;1.0700e+01;0;     0.169;  1368.780;  29408.316; 0;  29376.445;  29408.316;  30068.807;  28700.025;228;   7.566; 195.355;;; 206.880;  46.853;  23.929;  -1.108;  -1.396;   7.569;   7.559;  -7.563;   0.141;  -0.146;;;;;;;;;;;;;;;;;;
2015-12-20T00:12:53.941Z;0;1.0910e+01;0;     0.200;  1362.340;  29689.318; 0;  29658.045;  29689.318;  30347.037;  28984.697;228;   7.568; 195.490;;; 207.016;  46.987;  23.930;  -1.108;  -1.396;   7.571;   7.561;  -7.565;   0.139;  -0.146;;;;;;;;;;;;;;;;;;
2015-12-20T00:13:09.941Z;0;1.1400e+01;0;     0.214;  1362.340;  30355.713; 0;  30325.127;  30355.713;  31013.947;  29651.607;228;   7.570; 195.626;;; 207.153;  47.122;  23.930;  -1.108;  -1.396;   7.573;   7.563;  -7.568;   0.138;  -0.146;;;;;;;;;;;;;;;;;;
2015-12-20T00:13:25.941Z;0;1.0940e+01;0;     0.171;  1362.340;  29736.090; 0;  29704.865;  29736.090;  30393.846;  29031.506;228;   7.573; 195.761;;; 207.290;  47.256;  23.931;  -1.108;  -1.395;   7.576;   7.566;  -7.570;   0.136;  -0.146;;;;;;;;;;;;;;;;;;
2015-12-20T00:13:41.941Z;0;1.2110e+01;0;     0.185;  1362.340;  31280.811; 0;  31251.131;  31280.811;  31939.723;  30577.383;228;   7.575; 195.897;;; 207.428;  47.391;  23.932;  -1.107;  -1.395;   7.578;   7.568;  -7.573;   0.134;  -0.146;;;;;;;;;;;;;;;;;;
2015-12-20T00:13:57.941Z;0;1.3400e+01;0;     0.212;  1362.340;  32906.395; 0;  32878.184;  32906.395;  33566.406;  32204.066;228;   7.577; 196.033;;; 207.565;  47.525;  23.933;  -1.107;  -1.395;   7.580;   7.570;  -7.575;   0.132;  -0.146;;;;;;;;;;;;;;;;;;
2015-12-20T00:14:13.941Z;0;9.7910e+00;0;     0.219;  1355.956;  28131.492; 0;  28098.795;  28131.492;  28784.951;  27428.994;228;   7.580; 196.168;;; 207.702;  47.660;  23.934;  -1.107;  -1.394;   7.583;   7.573;  -7.577;   0.130;  -0.146;;;;;;;;;;;;;;;;;;
2015-12-20T00:14:29.941Z;0;8.4290e+00;0;     0.221;  1355.956;  26106.160; 0;  26070.922;  26106.160;  26757.715;  25401.758;228;   7.582; 196.304;;; 207.839;  47.794;  23.935;  -1.107;  -1.394;   7.585;   7.575;  -7.580;   0.128;  -0.146;;;;;;;;;;;;;;;;;;
2015-12-20T00:14:45.941Z;0;1.0770e+01;0;     0.203;  1355.956;  29502.986; 0;  29471.811;  29502.986;  30157.586;  28801.629;228;   7.584; 196.440;;; 207.977;  47.929;  23.936;  -1.107;  -1.394;   7.587;   7.578;  -7.582;   0.126;  -0.146;;;;;;;;;;;;;;;;;;
2015-12-20T00:15:01.941Z;0;1.0540e+01;0;     0.188;  1355.956;  29187.154; 0;  29155.641;  29187.154;  29841.500;  28485.545;228;   7.587; 196.575;;; 208.114;  48.064;  23.937;  -1.107;  -1.394;   7.590;   7.580;  -7.584;   0.124;  -0.147;;;;;;;;;;;;;;;;;;
2015-12-20T00:15:17.941Z;0;1.0840e+01;0;     0.164;  1355.956;  29595.402; 0;  29564.324;  29595.402;  30250.074;  28894.119;228;   7.589; 196.711;;; 208.252;  48.199;  23.938;  -1.106;  -1.393;   7.592;   7.582;  -7.587;   0.123;  -0.147;;;;;;;;;;;;;;;;;;
2015-12-20T00:15:33.940Z;0;1.1500e+01;0;     0.188;  1349.600;  30485.734; 0;  30455.846;  30485.734;  31138.121;  29788.521;228;   7.592; 196.847;;; 208.389;  48.334;  23.939;  -1.106;  -1.393;   7.594;   7.585;  -7.589;   0.121;  -0.147;;;;;;;;;;;;;;;;;;
2015-12-20T00:15:49.940Z;0;1.1950e+01;0;     0.166;  1349.600;  31074.754; 0;  31045.434;  31074.754;  31727.566;  30377.965;228;   7.594; 196.982;;; 208.527;  48.469;  23.940;  -1.106;  -1.393;   7.597;   7.587;  -7.592;   0.119;  -0.147;;;;;;;;;;;;;;;;;;
2015-12-20T00:16:05.940Z;0;1.2810e+01;0;     0.187;  1349.600;  32164.115; 0;  32135.789;  32164.115;  32817.672;  31468.072;228;   7.596; 197.118;;; 208.665;  48.604;  23.941;  -1.106;  -1.393;   7.599;   7.589;  -7.594;   0.117;  -0.147;;;;;;;;;;;;;;;;;;
2015-12-20T00:16:21.940Z;0;1.3150e+01;0;     0.158;  1349.600;  32597.229; 0;  32569.277;  32597.229;  33251.066;  31901.469;228;   7.599; 197.254;;; 208.803;  48.739;  23.942;  -1.106;  -1.392;   7.601;   7.592;  -7.596;   0.115;  -0.147;;;;;;;;;;;;;;;;;;
2015-12-20T00:16:37.940Z;0;1.0990e+01;0;     0.183;  1349.600;  29801.145; 0;  29770.568;  29801.145;  30453.016;  29103.416;228;   7.601; 197.389;;; 208.941;  48.875;  23.943;  -1.106;  -1.392;   7.604;   7.594;  -7.599;   0.113;  -0.147;;;;;;;;;;;;;;;;;;
2015-12-20T00:16:53.940Z;0;1.1940e+01;0;     0.158;  1343.300;  31052.924; 0;  31023.855;  31052.924;  31702.775;  30359.475;228;   7.603; 197.525;;; 209.079;  49.010;  23.944;  -1.105;  -1.392;   7.606;   7.596;  -7.601;   0.111;  -0.147;;;;;;;;;;;;;;;;;;
2015-12-20T00:17:09.940Z;0;1.1790e+01;0;     0.150;  1343.300;  30863.473; 0;  30834.227;  30863.473;  31513.189;  30169.891;228;   7.606; 197.661;;; 209.217;  49.145;  23.945;  -1.105;  -1.392;   7.608;   7.599;  -7.603;   0.109;  -0.147;;;;;;;;;;;;;;;;;;
2015-12-20T00:17:25.940Z;0;1.1660e+01;0;     0.154;  1343.300;  30689.986; 0;  30660.574;  30689.986;  31339.580;  29996.279;228;   7.608; 197.796;;; 209.355;  49.281;  23.946;  -1.105;  -1.391;   7.611;   7.601;  -7.606;   0.108;  -0.147;;;;;;;;;;;;;;;;;;
2015-12-20T00:17:41.940Z;0;1.1700e+01;0;     0.164;  1343.300;  30748.715; 0;  30719.359;  30748.715;  31398.350;  30055.051;228;   7.610; 197.932;;; 209.494;  49.417;  23.947;  -1.105;  -1.391;   7.613;   7.603;  -7.608;   0.106;  -0.147;;;;;;;;;;;;;;;;;;
2015-12-20T00:17:57.940Z;0;1.3060e+01;0;     0.179;  1343.300;  32476.172; 0;  32448.379;  32476.172;  33126.980;  31783.680;228;   7.613; 198.068;;; 209.632;  49.552;  23.948;  -1.105;  -1.391;   7.615;   7.606;  -7.610;   0.104;  -0.147;;;;;;;;;;;;;;;;;;
2015-12-20T00:18:13.939Z;0;1.1720e+01;0;     0.162;  1337.028;  30767.994; 0;  30738.930;  30767.994;  31414.713;  30077.686;228;   7.615; 198.204;;; 209.770;  49.688;  23.949;  -1.105;  -1.391;   7.618;   7.608;  -7.613;   0.102;  -0.147;;;;;;;;;;;;;;;;;;
2015-12-20T00:18:29.939Z;0;1.0960e+01;0;     0.177;  1337.028;  29752.990; 0;  29722.934;  29752.990;  30398.965;  29061.938;228;   7.617; 198.340;;; 209.909;  49.824;  23.950;  -1.104;  -1.390;   7.620;   7.610;  -7.615;   0.100;  -0.147;;;;;;;;;;;;;;;;;;
2015-12-20T00:18:45.939Z;0;1.2130e+01;0;     0.157;  1337.028;  31305.314; 0;  31276.750;  31305.314;  31952.408;  30615.379;228;   7.620; 198.475;;; 210.048;  49.960;  23.951;  -1.104;  -1.390;   7.622;   7.613;  -7.618;   0.098;  -0.147;;;;;;;;;;;;;;;;;;
2015-12-20T00:19:01.939Z;0;1.1940e+01;0;     0.162;  1337.028;  31064.656; 0;  31035.869;  31064.656;  31711.584;  30374.555;228;   7.622; 198.611;;; 210.186;  50.096;  23.952;  -1.104;  -1.390;   7.625;   7.615;  -7.620;   0.096;  -0.147;;;;;;;;;;;;;;;;;;
2015-12-20T00:19:17.939Z;0;1.2010e+01;0;     0.155;  1337.028;  31146.896; 0;  31118.186;  31146.896;  31793.881;  30456.852;228;   7.624; 198.747;;; 210.325;  50.232;  23.953;  -1.104;  -1.390;   7.627;   7.617;  -7.622;   0.094;  -0.147;;;;;;;;;;;;;;;;;;
2015-12-20T00:19:33.939Z;0;1.1650e+01;0;     0.184;  1330.812;  30682.369; 0;  30653.494;  30682.369;  31326.121;  29995.311;228;   7.627; 198.883;;; 210.464;  50.368;  23.954;  -1.104;  -1.389;   7.629;   7.620;  -7.625;   0.093;  -0.147;;;;;;;;;;;;;;;;;;
2015-12-20T00:19:49.939Z;0;1.0690e+01;0;     0.133;  1330.812;  29395.338; 0;  29365.197;  29395.338;  30038.141;  28707.330;228;   7.629; 199.019;;; 210.603;  50.504;  23.955;  -1.104;  -1.389;   7.632;   7.622;  -7.627;   0.091;  -0.147;;;;;;;;;;;;;;;;;;
2015-12-20T00:20:21.939Z;0;1.2760e+01;0;     0.154;  1330.812;  32103.102; 0;  32075.506;  32103.102;  32747.812;  31417.000;228;   7.634; 199.290;;; 210.877;  50.775;  23.956;  -1.103;  -1.389;   7.636;   7.627;  -7.632;   0.087;  -0.147;;;;;;;;;;;;;;;;;;
2015-12-20T00:20:37.939Z;0;1.0720e+01;0;     0.175;  1330.812;  29433.252; 0;  29403.150;  29433.252;  30076.084;  28745.273;228;   7.636; 199.426;;; 211.013;  50.910;  23.957;  -1.103;  -1.388;   7.639;   7.629;  -7.634;   0.085;  -0.147;;;;;;;;;;;;;;;;;;
2015-12-20T00:20:53.938Z;0;1.1090e+01;0;     0.185;  1324.624;  29940.783; 0;  29911.467;  29940.783;  30581.111;  29256.486;228;   7.638; 199.562;;; 211.150;  51.045;  23.958;  -1.103;  -1.388;   7.641;   7.631;  -7.636;   0.083;  -0.147;;;;;;;;;;;;;;;;;;
2015-12-20T00:21:09.938Z;0;1.2020e+01;0;     0.169;  1324.624;  31163.277; 0;  31135.113;  31163.277;  31804.469;  30479.844;228;   7.641; 199.698;;; 211.286;  51.180;  23.959;  -1.103;  -1.388;   7.643;   7.634;  -7.639;   0.081;  -0.147;;;;;;;;;;;;;;;;;;
2015-12-20T00:21:25.938Z;0;1.0260e+01;0;     0.213;  1324.624;  28789.541; 0;  28759.051;  28789.541;  29428.988;  28104.365;228;   7.643; 199.834;;; 211.422;  51.316;  23.960;  -1.103;  -1.388;   7.646;   7.636;  -7.641;   0.079;  -0.147;;;;;;;;;;;;;;;;;;
2015-12-20T00:21:41.938Z;0;9.9670e+00;0;     0.201;  1324.624;  28381.141; 0;  28350.211;  28381.141;  29020.260;  27695.635;228;   7.645; 199.969;;; 211.558;  51.451;  23.961;  -1.102;  -1.387;   7.648;   7.638;  -7.644;   0.077;  -0.147;;;;;;;;;;;;;;;;;;
2015-12-20T00:22:13.938Z;0;1.2070e+01;0;     0.173;  1318.492;  31229.623; 0;  31201.777;  31229.623;  31867.988;  30549.496;228;   7.650; 200.241;;; 211.829;  51.721;  23.963;  -1.102;  -1.387;   7.653;   7.643;  -7.648;   0.074;  -0.147;;;;;;;;;;;;;;;;;;
2015-12-20T00:22:29.938Z;0;1.2050e+01;0;     0.173;  1318.492;  31205.229; 0;  31177.361;  31205.229;  31843.576;  30525.084;228;   7.652; 200.377;;; 211.965;  51.856;  23.964;  -1.102;  -1.387;   7.655;   7.645;  -7.651;   0.072;  -0.147;;;;;;;;;;;;;;;;;;
2015-12-20T00:22:45.938Z;0;1.2190e+01;0;     0.189;  1318.492;  31376.760; 0;  31349.045;  31376.760;  32015.223;  30696.730;228;   7.655; 200.513;;; 212.101;  51.991;  23.965;  -1.102;  -1.386;   7.658;   7.648;  -7.653;   0.070;  -0.147;;;;;;;;;;;;;;;;;;
2015-12-20T00:23:01.938Z;0;1.2100e+01;0;     0.159;  1318.492;  31259.930; 0;  31232.111;  31259.930;  31898.314;  30579.822;228;   7.657; 200.649;;; 212.237;  52.126;  23.966;  -1.102;  -1.386;   7.660;   7.650;  -7.655;   0.068;  -0.147;;;;;;;;;;;;;;;;;;
2015-12-20T00:23:17.938Z;0;1.0650e+01;0;     0.170;  1318.492;  29329.680; 0;  29300.029;  29329.680;  29966.689;  28648.199;228;   7.659; 200.785;;; 212.372;  52.261;  23.967;  -1.101;  -1.386;   7.662;   7.652;  -7.658;   0.066;  -0.147;;;;;;;;;;;;;;;;;;
2015-12-20T00:23:33.937Z;0;9.8140e+00;0;     0.185;  1312.388;  28162.871; 0;  28132.275;  28162.871;  28796.121;  27483.734;228;   7.662; 200.921;;; 212.508;  52.396;  23.968;  -1.101;  -1.386;   7.665;   7.655;  -7.660;   0.064;  -0.147;;;;;;;;;;;;;;;;;;
2015-12-20T00:24:05.937Z;0;9.7330e+00;0;     0.198;  1312.388;  28046.205; 0;  28015.482;  28046.205;  28679.359;  27366.973;228;   7.666; 201.193;;; 212.779;  52.667;  23.970;  -1.101;  -1.385;   7.669;   7.659;  -7.665;   0.061;  -0.147;;;;;;;;;;;;;;;;;;
2015-12-20T00:24:21.937Z;0;1.0990e+01;0;     0.203;  1312.388;  29793.211; 0;  29764.291;  29793.211;  30427.719;  29115.330;228;   7.669; 201.329;;; 212.914;  52.802;  23.971;  -1.101;  -1.385;   7.672;   7.662;  -7.667;   0.059;  -0.147;;;;;;;;;;;;;;;;;;
2015-12-20T00:24:37.937Z;0;1.2190e+01;0;     0.174;  1312.388;  31380.303; 0;  31352.848;  31380.303;  32015.908;  30703.520;228;   7.671; 201.465;;; 213.049;  52.937;  23.972;  -1.101;  -1.385;   7.674;   7.664;  -7.669;   0.057;  -0.147;;;;;;;;;;;;;;;;;;
2015-12-20T00:24:53.937Z;0;1.1890e+01;0;     0.151;  1312.388;  30998.027; 0;  30970.232;  30998.027;  31633.379;  30320.990;228;   7.673; 201.601;;; 213.185;  53.072;  23.973;  -1.100;  -1.384;   7.676;   7.666;  -7.672;   0.055;  -0.147;;;;;;;;;;;;;;;;;;
2015-12-20T00:25:09.937Z;0;1.0930e+01;0;     0.183;  1306.340;  29716.098; 0;  29687.369;  29716.098;  30347.725;  29041.385;228;   7.676; 201.737;;; 213.320;  53.207;  23.973;  -1.100;  -1.384;   7.679;   7.669;  -7.674;   0.053;  -0.147;;;;;;;;;;;;;;;;;;
2015-12-20T00:25:25.937Z;0;1.1070e+01;0;     0.175;  1306.340;  29900.297; 0;  29871.746;  29900.297;  30532.057;  29225.717;228;   7.678; 201.873;;; 213.455;  53.343;  23.974;  -1.100;  -1.384;   7.681;   7.671;  -7.676;   0.051;  -0.147;;;;;;;;;;;;;;;;;;
2015-12-20T00:25:41.937Z;0;1.1730e+01;0;     0.173;  1306.340;  30777.102; 0;  30749.365;  30777.102;  31409.471;  30103.131;228;   7.680; 202.009;;; 213.590;  53.478;  23.975;  -1.100;  -1.384;   7.683;   7.673;  -7.679;   0.049;  -0.147;;;;;;;;;;;;;;;;;;
2015-12-20T00:25:57.937Z;0;1.1080e+01;0;     0.194;  1306.340;  29926.312; 0;  29897.787;  29926.312;  30558.090;  29251.750;228;   7.683; 202.145;;; 213.725;  53.613;  23.976;  -1.100;  -1.383;   7.686;   7.676;  -7.681;   0.047;  -0.147;;;;;;;;;;;;;;;;;;
2015-12-20T00:26:13.936Z;0;1.1740e+01;0;     0.163;  1306.340;  30794.467; 0;  30766.746;  30794.467;  31426.848;  30120.508;228;   7.685; 202.281;;; 213.860;  53.748;  23.977;  -1.100;  -1.383;   7.688;   7.678;  -7.683;   0.046;  -0.147;;;;;;;;;;;;;;;;;;